Погода Рудня

Погода Рудня : погода сейчас, прогноз погоды и архив. Всё, что Вы хотите узнать о погоде Рудня!

Поиск расширенной информации на нашем сайте:

Другие новости

Новости СМИ2

Главная страница сайта

Новости сайта

03.07.2017

Напоминаем, что на нашем специализированном сайте Метеоцентр.Азия вы можете получить высокодетализированные автоматические прогнозы погоды по пунктам России, СНГ и мира в авиационном формате (включающие направление и скорость ветра, видимость, явления погоды, количество и форму облачности, нижнюю и верхнюю границу облачности).

Рекомендуем: холодильная витрина

Погода Рудня - сегодня

Время (UTC), дата Ветер
(°,м/с) 
Видим.   Явления Облачность Т
(°С)
Тd
(°С)
f(%) Тe
(°С)
Pmin
(гПа)
dP
(гПа)
Po
(мм)
O2
(г/м3)
Тmin Tmax R s Состояние
почвы
09 13.01.18 060 (СВ) 10 км  {снег}  ясно 
-8.6 -15.1 59 -10  1041.2  0.5  769  321           
12 13.01.18 050 (СВ) 10 км  {снег}  ясно 
-8.2 -15.6 55 -10  1041.1  -0.2  769  321           
15 13.01.18 340 (С) 10 км    ясно 
-11.8 -15.2 76 -14  1042  0.7  770  326    -7.8  0.0     
18 13.01.18 040 (СВ) 10 км    ясно 
-14.6 -16.7 84 -15  1042.6  0.5  770  329           
21 13.01.18 280 (З) 10 км    ясно 
-16.4 -18.7 82 -17  1042.9  0.1  770  332           
00 14.01.18 тихо ()   10 км    ясно 
-17.1 -19.4 82 -17  1042.4  -0.5  770  332           
03 14.01.18 тихо ()   10 км    ясно 
-17.8 -20.1 82 -18  1041.8  -0.6  769  333  -17.8         
06 14.01.18 300 (СЗ) 10 км    ясно 
-17 -19.6 80 -17  1041.9  0.2  769  332  -18.4         
09 14.01.18 320 (СЗ) 10 км    ясно 
-9.6 -14.1 70 -9  1040.6  -0.8  769  322           
12 14.01.18 340 (С) 10 км    ясно 
-8.3 -14.7 60 -10  1039.9  -0.7  768  321           
15 14.01.18 260 (З) 10 км    ясно 
-12 -14.8 80 -12  1039.7  -0.4  768  325    -8       
18 14.01.18 310 (СЗ) 10 км    ясно 
-13.9 -16 84 -14  1039.6  -0.2  768  327           
21 14.01.18 тихо ()   10 км    9/9 600 м 
[Sc]
-10.8 -13.2 82 -11  1039.4  768  323           
00 15.01.18 тихо ()   10 км    10/10 600 м 
[Sc]
-10.1 -12.4 83 -10  1039  -0.4  768  322           
03 15.01.18 110 (В) 10 км    ясно 
-11.8 -13.4 88 -12  1039.2  -0.1  768  325  -14.2      <0.5  равномерный
сухой снег
100% 
06 15.01.18 120 (ЮВ) 10 км    3/3 600 м 
[Sc]
-13.8 -16.1 83 -14  1040.3  0.9  768  328  -14.4         
09 15.01.18 140 (ЮВ) 10 км    ясно 
-7.4 -13 64 -7  1039.9  768  319           
12 15.01.18 130 (ЮВ) 10 км    ясно 
-6 -12.5 60 -6  1039.3  -0.5  768  318           
15 15.01.18 тихо ()   10 км    ясно 
-10.3 -13.3 79 -10  1039.6  768  323    -5.8       
18 15.01.18 090 (В) 10 км    ясно 
-12.9 -15.3 82 -13  1040.1  0.3  768  326           
21 15.01.18 100 (В) 10 км    ясно 
-14.9 -16.9 85 -15  1039.9  -0.3  768  329           
00 16.01.18 140 (ЮВ) 10 км    ясно 
-16.9 -19.1 83 -17  1039.6  -0.4  768  331           
03 16.01.18 тихо ()   10 км    ясно 
-17.5 -19.9 82 -18  1038.1  -1.5  767  332  -17.5      <0.5  равномерный
сухой снег
100% 
06 16.01.18 110 (В) 10 км    ясно 
-17.2 -19.9 80 -17  1038.1  -0.5  766  331  -18.1         
09 16.01.18 140 (ЮВ) 10 км    ясно 
-9.3 -15.5 61 -12  1036  -1.1  765  321           
Время (UTC), дата Ветер
(°,м/с) 
Видим.   Явления Облачность Т
(°С)
Тd
(°С)
f(%) Тe
(°С)
Pmin
(гПа)
dP
(гПа)
Po
(мм)
O2
(г/м3)
Тmin Tmax R s Состояние
почвы

Для получения пояснительной информации подведите курсор к названию столбца.

ПОГОДА Рудня - архив

Всё, что Вы хотите узнать о погоде Рудня - удобно и подробно!

Выберите нужную дату (начиная с 1 января 2015* года) и нажмите кнопку "Найти".
Будут отображены архивные сводки погоды по пункту Рудня, начиная с указанной даты.


Отображать данные в формате CSV (для использования в таблицах Excel)


Внимание! Наш архив погоды предназначен исключительно для личного некоммерческого использования в познавательных целях. Если Вам необходимы официальные справки о состоянии погоды (для производственных, юридических, коммерческих и т.п. целей), обращайтесь в органы Росгидромета.

*Примечание: данная дата относится к архиву по метеостанциям СССР (Россия, СНГ, Балтия).
Архив по метеостанциям Зарубежной Европы и Азии (кроме Китая) хранится 10 дней, по другим регионам земного шара (Китай, Африка, Америка, Австралия, Океания) - 1 день.

Рудня - район местоположения метеостанции


Название, широта, долгота, высота метеостанции:
Рудня 50.8°ш. 44.6°д. 114 м над ур. моря [Российская Федерация]

Дополнительная информация

В oтличие oт бoльшинства пoгoдных сайтoв мы публикуем пoдрoбную метеoинфoрмацию в детальнoм прoфессиoнальнoм фoрмате.

Характеристики температуры и влажнoсти вoздуха измеряются на высoте 2 м в тени вдали oт зданий и деревьев.
Скoрoсть ветра измеряется на высoте 10 м (на урoвне рoста челoвека скoрoсть ветра ниже в 1.5-2 раза). Если метеoстанция нахoдится в гoрoде или в лесу, тo скoрoсть ветра занижена на 2-4 м/с пo сравнению с oткрытым местoм. Скoрoсть ветра над акватoриями крупных рек и oзёр, а также на вершинах хoлмoв на 2-5 м/с выше, чем в oбычных услoвиях.
Атмoсфернoе давление в разных тoчках местнoсти мoжет значительнo oтличаться oт давления на метеoстанции, в зависимoсти oт услoвий рельефа (при пoдъёме на 10 м давление пoнижается примернo на 1 мм рт.ст.).